Regional Weather Roundup
Issued by NWS

Home | Current Version | Previous Version | Graphics & Text | Print | Product List | Glossary On
Versions: 1 2 3 4 5 6 7 8 9 10 11 12 13 14 15 16 17 18 19 20 21 22 23 24 25 26 27 28 29 30 31 32 33 34 35 36 37 38 39 40 41 42 43 44 45 46 47 48 49 50
323
ASUS43 KLSX 231707
RWRMO

WEATHER SUMMARY FOR MISSOURI
NATIONAL WEATHER SERVICE SPRINGFIELD MO
1100 AM CST MON JAN 23 2017

NOTE: "FAIR" INDICATES FEW OR NO CLOUDS BELOW 12,000 FEET WITH NO
       SIGNIFICANT WEATHER AND/OR OBSTRUCTIONS TO VISIBILITY.
       CURRENT SKY AND/OR WEATHER CONDITIONS ARE NOT AVAILABLE FOR
       CHILLICOTHE AND FARMINGTON.

MOZ001>031-035>038-043-044-053-054-231800-
...NORTHERN AND WESTERN MISSOURI...

CITY           SKY/WX    TMP DP  RH WIND       PRES   REMARKS
KANSAS CTY INT CLOUDY    33  30  88 N7        29.91S FOG     WCI  27
KANSAS C DTWN  CLOUDY    36  32  85 CALM      29.93R FOG
LEE`S SUMMIT   CLOUDY    34  32  92 NW6       29.92S FOG     WCI  29
ST JOSEPH      CLOUDY    33  31  92 N8        29.94R FOG     WCI  26
CHILLICOTHE      N/A     34  30  85 NW7       29.93S WCI  28
KIRKSVILLE     CLOUDY    33  31  92 NW8       29.91R WCI  26

$$
MOZ066>068-077>081-088>096-101>105-231800-
...SOUTHWEST MISSOURI...

CITY           SKY/WX    TMP DP  RH WIND       PRES   REMARKS
SPRINGFIELD    CLOUDY    40  36  86 NW5       29.90R
JOPLIN         MOSUNNY   43  36  76 NW5       29.93R
BRANSON        PTSUNNY   41  36  81 NW7       29.91R

$$
MOZ032>034-039>042-045>050-055>058-069>072-231800-
...CENTRAL MISSOURI...

CITY           SKY/WX    TMP DP  RH WIND       PRES   REMARKS
COLUMBIA       CLOUDY    40  34  79 NW10      29.89R
JEFFERSON CITY CLOUDY    41  35  79 W10       29.91R
ROLLA          CLOUDY    39  35  86 NW8       29.86S
SEDALIA        CLOUDY    37  34  89 NW7       29.92F
WHITEMAN AFB   CLOUDY    34  34 100 N5        29.91S FOG     WCI  30
WARRENSBURG    CLOUDY    34  32  93 NW5       29.92F WCI  30
OSAGE BEACH    CLOUDY    40  35  83 NW5       29.90F

$$
MOZ051-052-059>065-231800-
...EAST CENTRAL MISSOURI...

CITY           SKY/WX    TMP DP  RH WIND       PRES   REMARKS
ST LOUIS INTL  CLOUDY    44  35  70 NW13      29.85R
SPIRIT OF STL  CLOUDY    43  35  73 N10G18    29.86R
ST CHARLES     CLOUDY    42  35  76 NW13      29.86R

$$
MOZ072>076-082>087-097>100-106>115-231800-
...SOUTH CENTRAL AND SOUTHEAST MISSOURI...

CITY           SKY/WX    TMP DP  RH WIND       PRES   REMARKS
CAPE GIRARDEAU CLOUDY    44  35  70 N18G24    29.81R
FARMINGTON     CLOUDY    42  34  73 NW15G21   29.84R
POPLAR BLUFF   PTSUNNY   47  37  68 N14G23    29.82F
WEST PLAINS    CLOUDY    43  35  73 NW13      29.87S

$$



USA.gov is the U.S. government's official web portal to all federal, state and local government web resources and services.